Volver al catálogo

THORAD AGENA D DEB

ActivoLEO
NORAD 4968·DEBRIS·🇺🇸 United States

Lanzado Apr 8, 1970 desde Vandenberg Space Force Base

Loading…

Próximos Pases

TLE

Source: Space-Track
1 04968U 70025GN  26229.53357799  .00000093  00000-0  18103-3 0  9998
2 04968 100.1799 242.5988 0018878 228.5197 283.3987 13.62751423792765

Sigue THORAD AGENA D DEB en tiempo real con AllMySat

Download on the App Store